Helicity
7 7 12 25 39 43 51 65 71 70 55 53 55 60 62 62 58 -7 24 25 20 39 58 61 47 37 25 8 -40 -8 18 14 -7 31 40 18 50 45 63 5 16 46 -12 7 -6
3 9 12 16 19 27 40 54 72 76 76 65 63 60 64 59 6 44 60 3 28 16 79 49 46 54 24 5 14 -16 21 21 -4 -25 62 -5 59 80 -10 -1 12 101 76 35 11
5 10 16 19 21 24 28 34 53 73 79 83 74 71 67 55 59 56 38 -27 -7 6 81 87 60 51 32 10 49 4 32 42 -3 28 45 39 110 129 33 -7 104 171 51 -0 -6
5 10 15 18 19 23 23 33 34 52 73 85 94 81 75 32 91 72 84 -25 -12 36 91 115 102 46 38 53 66 88 -2 17 -21 86 53 27 27 37 10 44 130 155 72 14 8
9 18 22 22 22 18 21 23 36 36 52 75 85 95 47 60 90 82 58 38 65 49 74 124 81 59 79 62 64 46 -6 1 10 34 29 40 27 26 9 13 180 109 51 6 14
16 18 18 23 23 22 22 25 32 35 33 47 70 90 60 81 69 40 74 85 70 68 73 95 58 64 115 126 77 -1 34 23 60 -12 14 22 19 50 -15 73 158 112 44 24 30
8 14 20 12 12 19 20 22 24 28 32 26 40 66 74 107 97 69 78 121 88 50 56 59 85 131 171 214 107 27 75 86 -4 -17 -22 52 54 23 80 94 126 68 32 18 9
5 3 10 10 8 10 16 17 19 21 18 12 25 55 92 115 102 81 59 57 86 55 49 56 95 144 148 172 126 130 122 98 22 2 16 31 32 20 80 86 105 64 15 47 7
-10 -4 6 4 6 5 15 23 8 -7 5 2 39 49 154 106 35 17 72 78 85 70 70 153 112 120 169 161 208 159 81 79 24 13 16 9 2 -45 1 -43 117 75 31 5 32
-14 -9 11 3 -1 12 33 7 7 6 -9 -3 40 93 114 96 66 38 45 70 111 115 132 151 142 171 195 146 99 75 82 43 41 5 9 25 -26 4 -91 -10 25 49 34 16 105
-5 -3 13 11 2 24 19 45 61 42 55 43 16 106 171 172 79 67 65 95 161 165 212 162 173 152 97 93 120 139 176 182 85 16 122 11 40 68 -23 12 -47 -11 40 56 161
-7 -10 -0 -6 -2 8 7 84 43 12 78 52 56 94 141 141 198 107 121 141 189 198 203 232 107 99 89 99 92 81 137 135 108 125 72 3 38 58 -29 -18 -2 -31 3 121 75
-10 -16 -26 -33 -31 18 83 57 3 6 37 54 36 60 95 66 91 143 91 130 156 166 176 157 104 52 77 119 98 95 104 112 69 66 58 79 26 -28 3 3 24 17 -9 118 169
-13 -22 -18 -47 4 29 46 -14 24 3 64 72 70 60 30 35 99 83 70 116 152 123 139 90 68 121 79 92 81 76 89 95 102 124 100 31 61 52 155 -4 -40 -47 -33 95 165
-5 -31 -36 -50 -0 36 1 79 -11 13 117 96 81 26 46 26 67 101 63 137 139 145 132 104 86 113 119 93 108 55 108 86 123 136 126 99 86 25 169 36 -18 -7 17 119 229
-12 2 -49 -19 -2 53 42 4 -24 33 136 37 38 75 38 46 60 66 105 93 88 124 111 70 95 102 110 123 143 99 103 123 120 204 182 125 98 55 75 48 6 6 129 158 202
41 -20 -19 -54 -26 7 6 -29 -7 34 32 87 77 79 41 39 52 76 92 117 160 203 165 122 105 101 104 166 135 135 156 203 237 196 121 83 113 64 78 35 147 120 127 174 264
120 -62 -0 77 32 16 -13 -0 55 57 91 132 98 67 10 23 34 38 109 115 110 149 180 174 198 93 91 158 127 108 170 195 216 187 138 69 80 42 74 145 168 204 228 176 249
27 -67 -28 3 57 62 26 1 -9 19 43 92 110 78 104 79 54 54 57 99 84 87 139 150 248 156 84 77 117 127 192 94 152 169 145 127 132 37 67 276 335 278 264 263 252
-88 -89 -38 8 79 37 47 14 22 12 44 28 59 56 84 161 49 47 103 76 79 83 70 118 199 154 147 82 117 87 69 207 206 218 189 189 121 81 80 165 248 248 237 240 211
-50 -40 -27 29 66 30 23 -7 -17 -7 13 21 34 43 86 113 103 123 144 103 135 131 69 97 113 224 155 170 157 161 160 150 114 160 176 150 132 84 46 85 112 161 171 207 219
-39 -22 -44 -5 -5 -12 1 20 -6 23 15 48 32 33 79 81 103 124 152 133 144 118 92 108 74 182 183 138 82 92 156 118 158 212 170 145 121 98 117 87 89 98 109 119 152
-42 -45 -42 -13 15 -6 8 27 44 38 76 49 69 57 43 67 124 194 107 157 140 96 88 66 94 150 202 168 261 172 263 205 117 148 168 183 163 69 100 95 92 81 63 56 90
1 31 -9 -2 7 70 79 60 98 72 39 83 54 51 60 128 190 146 151 109 124 109 103 69 81 62 140 232 190 220 277 228 167 188 163 163 144 45 53 87 103 114 103 81 92
90 67 17 40 74 64 39 35 104 31 46 104 123 78 38 74 118 144 160 121 127 183 99 92 96 77 77 161 236 296 256 267 168 140 176 135 82 -5 80 106 109 125 120 86 104
72 93 49 89 24 53 26 60 85 55 30 65 75 96 49 49 77 107 110 117 107 156 110 158 103 99 148 116 200 332 436 363 225 176 185 197 165 126 113 160 163 158 124 113 148
65 29 38 88 46 31 18 30 30 46 17 16 12 27 63 102 113 108 105 120 101 92 114 89 107 129 102 140 99 167 358 320 224 160 133 140 89 110 127 120 96 108 109 97 110
Wind_Speed
53 53 53 52 53 52 51 52 52 51 49 49 49 49 48 48 48 38 40 47 41 34 15 19 36 38 31 32 32 28 29 26 31 41 56 63 60 57 45 52 57 35 65 58 49
54 54 54 54 54 54 53 52 51 51 50 50 50 49 48 48 45 53 55 48 40 13 19 24 28 25 25 32 28 27 27 26 15 21 40 32 11 41 51 51 26 30 30 53 56
55 55 55 55 55 55 54 53 52 51 51 51 50 50 48 46 43 37 35 49 31 21 28 28 22 21 26 25 25 24 26 25 18 30 25 29 8 36 54 42 47 49 57 59 62
56 56 56 56 55 55 54 55 54 52 51 51 51 48 47 37 37 32 39 41 34 32 36 29 35 28 31 27 25 25 26 19 20 33 23 25 10 26 55 39 47 51 54 58 59
58 59 59 58 57 56 55 54 54 53 53 52 49 45 35 39 42 37 28 23 30 30 36 35 38 32 28 27 23 25 21 19 13 24 17 12 51 10 54 50 44 50 54 59 57
60 60 60 59 58 57 56 55 54 53 53 51 46 42 35 46 37 34 12 19 31 33 42 37 42 40 36 34 29 22 18 7 4 26 12 17 25 9 55 32 47 56 61 58 50
59 61 60 58 56 56 54 53 52 52 51 45 43 39 38 48 36 25 17 31 34 38 42 42 35 35 37 36 34 12 16 15 20 10 13 11 20 46 28 51 50 60 62 55 53
56 59 60 58 56 52 51 49 51 50 46 39 34 38 43 37 37 31 31 38 40 39 40 37 43 46 41 40 30 17 16 26 11 34 23 29 18 29 48 53 51 55 58 57 52
55 58 59 57 55 51 49 49 44 40 35 31 28 36 45 44 41 45 34 36 35 38 38 38 37 44 42 36 36 32 33 26 22 59 29 35 13 28 65 66 57 56 57 61 50
54 56 56 54 51 50 47 42 31 31 29 27 38 38 43 40 39 38 36 31 33 33 36 42 45 48 43 39 46 38 37 31 37 15 18 28 30 12 53 56 62 62 60 57 53
54 55 54 51 49 45 38 31 35 35 38 41 41 45 51 38 41 30 31 35 32 37 46 45 53 63 54 44 36 34 36 42 34 20 28 34 31 18 2 4 67 62 59 52 50
52 50 47 47 46 41 34 34 38 41 53 55 55 53 54 42 45 36 22 33 41 48 44 47 65 60 50 49 47 42 41 38 26 22 35 16 27 7 10 31 23 44 32 35 41
54 51 46 42 38 31 34 37 38 47 42 41 34 35 34 22 41 50 31 35 41 46 49 53 43 50 55 56 54 48 44 41 36 28 27 19 24 29 36 32 43 66 59 28 42
54 46 39 37 33 30 31 29 51 32 33 35 32 32 32 35 43 35 39 38 41 53 46 54 53 47 57 63 51 57 46 40 34 34 44 30 49 33 17 41 62 69 73 30 40
58 42 36 33 25 30 30 31 13 29 31 42 32 33 29 28 32 38 33 43 40 45 46 48 50 54 62 65 50 53 42 46 45 43 39 44 48 44 15 17 23 40 53 39 36
56 15 25 31 26 22 15 27 31 31 32 32 31 37 37 35 30 34 41 36 36 40 46 55 48 48 57 52 55 54 50 44 41 48 64 47 44 46 26 18 17 16 29 31 42
42 17 23 28 30 30 12 22 31 29 29 36 37 40 40 43 36 34 47 52 47 53 58 54 62 56 51 57 46 49 49 54 53 53 54 41 40 44 44 35 18 17 21 21 19
42 18 23 21 25 34 41 34 32 27 30 33 42 43 42 37 45 39 40 50 46 45 45 52 59 49 42 55 46 47 50 52 62 58 51 38 52 45 39 33 20 21 25 24 28
39 27 24 25 29 33 37 38 35 24 32 38 33 28 31 32 34 37 38 42 46 50 49 48 52 38 37 40 42 46 50 46 45 44 46 45 46 44 38 33 24 24 22 26 26
35 29 23 26 31 35 36 36 37 29 34 30 29 26 23 30 32 34 36 34 34 40 46 48 54 42 42 38 36 41 34 50 50 59 60 51 48 48 45 39 32 28 32 32 31
31 29 30 29 30 32 33 33 37 31 27 31 30 26 26 21 24 30 36 29 33 31 25 41 45 47 39 40 45 40 45 42 44 51 59 58 57 47 41 32 31 32 31 34 36
30 28 32 31 30 33 32 31 34 34 32 28 30 26 24 25 24 25 28 34 34 36 34 36 38 46 42 34 27 24 42 47 60 59 51 53 57 37 28 28 26 29 32 29 33
31 26 30 24 27 26 29 33 37 35 34 32 31 28 27 32 30 28 29 29 28 32 37 36 40 49 41 36 31 31 41 43 45 51 63 61 56 35 33 29 29 32 27 25 31
26 28 31 28 32 33 35 34 33 35 34 30 29 26 28 29 28 34 34 33 32 27 29 32 33 40 47 34 32 37 40 43 45 58 60 65 56 46 38 34 29 27 24 27 26
25 26 30 29 36 37 35 34 33 32 31 30 27 28 29 31 33 32 32 36 31 33 30 32 40 35 31 25 26 33 40 46 51 47 57 57 52 50 40 33 31 25 20 22 21
25 24 30 32 31 30 32 32 35 31 31 29 24 26 25 28 31 30 34 29 32 34 30 35 39 40 45 51 45 47 46 48 45 43 44 38 52 36 30 28 28 28 27 25 21
30 27 26 31 30 31 28 32 35 40 30 28 23 25 25 26 28 29 23 29 30 30 31 34 36 42 51 49 49 68 47 44 43 43 43 55 53 25 27 24 23 25 29 26 21
Wind_Direction
332 329 326 321 316 314 313 311 307 303 302 295 294 290 285 283 275 283 274 243 244 252 251 251 238 232 244 254 264 318 290 258 74 107 167 161 158 170 179 103 147 187 138 115 112
333 325 320 317 315 311 310 308 306 305 301 299 292 289 285 286 281 257 239 240 239 237 240 242 240 240 260 259 284 292 291 273 45 86 118 106 147 194 114 106 69 73 94 110 116
331 327 320 312 309 307 303 302 301 301 301 297 294 286 284 285 280 270 261 234 238 240 244 243 241 248 260 271 278 299 297 286 16 98 111 109 73 203 121 103 108 112 119 121 125
330 327 323 313 306 306 308 302 297 293 296 297 291 289 281 288 271 272 266 235 236 241 238 238 235 246 252 268 278 292 311 316 58 104 105 105 73 221 135 203 120 118 123 126 131
329 321 317 311 308 305 303 303 300 297 289 290 290 287 291 275 265 272 275 228 236 239 233 233 232 243 253 266 274 284 324 6 90 100 93 87 144 249 159 201 122 121 127 133 132
338 326 321 313 307 306 301 299 298 297 298 287 284 282 282 263 273 271 272 236 239 236 232 233 238 242 254 258 258 278 307 272 49 106 89 248 239 279 194 166 129 134 140 137 130
346 336 331 327 325 312 306 303 300 299 294 297 284 279 276 259 279 269 265 251 245 240 234 234 246 247 254 259 270 298 289 316 268 240 274 66 259 223 235 145 132 143 145 140 138
352 345 335 329 326 324 310 307 300 299 299 298 298 276 269 271 265 262 258 253 246 245 242 242 245 251 254 260 274 266 286 272 292 251 255 245 277 263 206 206 138 144 149 148 146
356 349 340 331 325 324 317 300 305 311 310 304 302 280 265 262 255 253 259 255 245 242 242 244 250 249 253 254 255 256 256 268 265 212 246 243 291 104 199 188 146 148 152 156 149
359 355 351 342 335 322 315 312 330 328 327 309 287 280 266 262 256 254 253 254 244 235 236 238 244 243 247 247 244 251 254 263 260 255 261 254 267 99 210 205 158 156 154 158 155
358 355 354 352 348 338 338 346 332 315 310 292 285 274 273 267 253 251 248 241 244 234 229 237 237 234 239 247 255 261 262 263 266 281 247 257 271 115 123 98 176 167 159 153 154
0 1 4 3 354 346 350 341 332 319 293 280 273 267 265 273 248 246 234 240 236 229 235 239 237 238 244 245 249 256 258 263 271 274 262 259 271 252 148 147 154 162 150 145 145
358 359 5 10 13 16 0 350 350 315 303 290 286 272 269 267 249 242 229 243 238 232 236 238 247 244 242 243 245 252 255 260 269 267 283 295 285 273 260 266 248 224 233 151 154
354 8 19 22 30 38 24 48 311 350 305 299 283 275 272 269 259 247 234 238 246 236 240 244 246 248 242 242 245 246 251 264 267 261 263 268 263 277 273 258 238 205 200 166 162
328 15 31 37 50 37 39 259 112 359 305 296 287 285 276 262 259 239 243 237 243 239 242 243 246 245 243 240 243 244 257 264 262 261 268 264 269 280 272 241 183 174 176 168 168
317 68 60 49 76 114 174 256 35 342 314 317 291 283 262 258 253 243 237 247 246 245 247 247 254 253 245 246 243 247 256 268 268 259 256 262 263 272 276 244 228 191 183 175 168
280 79 79 56 54 58 185 143 9 7 347 313 292 284 266 248 245 250 235 232 238 240 242 250 248 251 247 243 250 246 248 249 252 251 253 258 264 268 270 272 233 195 224 218 203
276 88 95 115 80 35 20 16 12 8 348 245 299 286 254 249 243 247 238 233 243 245 245 243 240 241 245 242 246 245 243 244 247 249 252 263 259 263 280 277 262 252 251 255 257
316 40 74 99 93 80 20 15 23 37 329 297 294 296 263 250 248 243 239 237 246 241 242 243 244 249 249 251 246 245 245 249 258 262 256 260 262 266 273 266 261 252 255 261 264
349 33 78 78 80 27 7 358 10 57 317 290 316 305 277 254 246 241 240 252 251 252 246 248 243 253 253 259 254 249 248 246 251 249 248 258 259 261 260 257 260 256 256 264 267
3 27 62 87 67 42 29 13 17 1 325 287 305 310 273 278 263 249 249 257 256 253 257 249 247 249 253 257 249 248 250 255 255 255 252 252 257 264 264 256 257 262 268 268 268
353 33 47 68 56 47 43 42 339 322 328 327 309 306 300 279 269 253 253 259 265 255 257 260 252 246 249 272 253 264 259 254 249 249 257 258 258 272 265 260 265 267 269 275 281
325 43 44 67 55 59 57 51 3 336 311 314 304 298 290 267 261 251 263 274 286 263 258 264 255 245 244 256 266 267 271 264 258 256 251 253 258 265 261 266 271 270 276 280 283
347 17 41 40 43 58 46 51 46 318 330 312 304 298 283 278 269 254 252 268 281 281 274 268 261 253 242 246 261 265 274 267 261 253 251 253 258 255 255 259 270 274 282 285 286
331 10 37 36 13 37 60 67 64 339 321 305 297 297 287 271 258 260 261 264 283 280 278 271 257 255 252 259 275 281 280 274 260 260 255 257 255 253 253 259 264 273 289 287 294
313 359 7 14 29 52 63 66 61 65 305 288 338 315 304 276 264 264 256 276 281 278 275 275 263 259 259 253 267 272 287 280 269 262 266 260 261 263 259 264 265 268 272 281 303
318 343 47 305 41 69 67 63 72 75 359 329 14 357 312 279 273 277 313 279 277 279 279 275 270 266 260 263 255 259 274 286 274 272 263 260 266 248 254 260 264 268 270 277 292